Tracking 17150 objects as of 4-August-2015
HD Live streaming from Space Station

IRIDIUM 33 DEB

Track IRIDIUM 33 DEB now!
10-day predictions
IRIDIUM 33 DEB is classified as:


NORAD ID: 33869
Int'l Code: 1997-051AN
Perigee: 720.6 km
Apogee: 851.2 km
Inclination: 86.4 °
Period: 100.4 minutes
Semi major axis: 7156 km
RCS: 0.08 m2 (small)
Launch date: September 14, 1997
Source: United States (US)

Note: This is SATELLITE DEBRIS
Your satellite tracking list
Your tracking list is empty





NASA's NSSDC Master Catalog

Two Line Element Set (TLE):
1 33869U 97051AN  15215.17292653  .00005018  00000-0  17129-2 0  9996
2 33869 086.3683 230.2554 0091195 092.4038 268.7602 14.33891181335435

Source of the keplerian elements: AFSPC

N2YO: 341